[[{"header":{"parameterUnit":"m.s-1","parameterCategory":1,"la1":30.2991,"la2":30.254,"lo1":-89.0895,"lo2":-89.0444,"dx":0.0017,"dy":0.0017,"nx":28,"ny":28,"refTime":"2022-12-02T09:00:00:Z","depth":0,"parameterNumber":2,"parameterNumberName":"U-component_of_WINDS"},"data":[0,0,0,0,0,0,0,0,0,0,0,0,0,0,0,0,0,0,0,0,0,0,0,0,0,0,0,0,0,0,0,0,0,0,0,0,0,0,0,0,0,0,0,0,0,0,0,0,0,0,0,0,0,0,0,0,0,0,-2.6164,-2.6165,0,-2.625,-2.6251,-2.6252,-2.6252,-2.6251,-2.625,-2.6249,-2.6338,-2.6341,-2.6345,0,0,0,0,0,0,0,0,0,0,0,0,0,-2.6004,-2.6007,-2.6164,-2.6165,-2.6166,-2.6249,-2.6251,-2.6252,-2.6252,-2.6251,-2.6249,-2.6248,-2.6337,-2.6341,-2.6345,0,0,0,0,0,0,0,0,0,0,0,0,0,-2.608,-2.6008,-2.6164,-2.6176,-2.6178,-2.6249,-2.6251,-2.6252,-2.6252,-2.6251,-2.6249,-2.6247,-2.6336,-2.6341,-2.6346,-2.6411,0,0,-2.6361,-2.6364,0,0,0,0,0,0,0,0,-2.6075,-2.6086,-2.6174,-2.6176,-2.6178,-2.6238,-2.6227,-2.6305,-2.6253,-2.6224,-2.6249,-2.6247,-2.6306,-2.6314,-2.6334,-2.6415,-2.6419,-2.6362,-2.6365,-2.6367,-2.6369,0,0,0,0,0,0,0,-2.607,-2.6082,-2.6198,-2.6175,-2.6178,-2.6179,-2.6187,-2.6242,-2.6274,-2.6227,-2.6227,-2.6237,-2.6307,-2.6329,-2.6336,-2.642,-2.6362,-2.6366,-2.6369,-2.6371,-2.6559,-2.6561,0,0,0,0,0,0,-2.6062,-2.6078,-2.6195,-2.6201,-2.6122,-2.6183,-2.6193,-2.6221,-2.6273,-2.6279,-2.6238,-2.6237,-2.6321,-2.633,-2.6339,-2.6418,-2.6367,-2.6372,-2.6375,-2.6557,-2.6559,-2.6561,0,0,0,0,0,0,-2.6059,-2.6073,-2.6192,-2.6139,-2.6154,-2.6187,-2.6219,-2.6223,-2.6244,-2.6282,-2.6288,-2.6254,-2.632,-2.6332,-2.6393,-2.6421,-2.6374,-2.6379,-2.6555,-2.6558,-2.656,-2.6576,0,0,0,0,0,0,-2.6054,-2.6071,-2.6096,-2.614,-2.6157,-2.6243,-2.622,-2.6226,-2.6253,-2.6252,-2.6298,-2.6304,-2.6319,-2.6385,-2.6398,-2.6427,-2.6383,-2.6552,-2.6556,-2.6559,-2.6573,-2.6579,-2.6584,0,0,0,0,0,-2.6048,-2.6097,-2.6097,-2.6111,-2.6188,-2.6245,-2.6255,-2.6271,-2.6255,-2.628,-2.6304,-2.6303,-2.6416,-2.6391,-2.6406,-2.6437,-2.6551,-2.6555,-2.6559,-2.6571,-2.6578,-2.6584,0,0,0,0,0,0,-2.6056,-2.6103,-2.6103,-2.6168,-2.6202,-2.6245,-2.6277,-2.6278,-2.6318,-2.6316,-2.6334,-2.6345,-2.6406,-2.6428,-2.6399,-2.6503,-2.6482,-2.6489,-2.6485,-2.6493,-2.6498,-2.6491,-2.6387,0,0,0,0,0,-2.6065,-2.6106,-2.6146,-2.6199,-2.6216,-2.6244,-2.6269,-2.6278,-2.6315,-2.633,-2.6359,-2.6395,-2.6439,-2.6467,-2.651,-2.6577,-2.6587,-2.6606,-2.6611,-2.6616,-2.6621,-2.6659,-2.6667,-2.6576,-2.6575,-2.6575,0,0,-2.6084,-2.6115,-2.614,-2.6201,-2.6229,-2.6272,-2.6256,-2.6302,-2.6334,-2.6337,-2.6396,-2.6419,-2.6461,-2.6525,-2.6555,-2.6545,-2.6649,-2.6621,-2.6624,-2.6628,-2.6664,-2.6672,-2.668,-2.6578,-2.6578,-2.6577,0,0,-2.6141,-2.6169,-2.6216,-2.6244,-2.6286,-2.6304,-2.6316,-2.6359,-2.6373,-2.6433,-2.6436,-2.6475,-2.655,-2.658,-2.6605,-2.6674,-2.6674,-2.6688,-2.6716,-2.6752,-2.6759,-2.6766,-2.679,-2.6798,-2.6694,-2.6694,-2.6694,0,-2.6159,-2.6223,-2.624,-2.6286,-2.6313,-2.6317,-2.6365,-2.6392,-2.6447,-2.6465,-2.6454,-2.6549,-2.6578,-2.6649,-2.6665,-2.6686,-2.67,-2.6682,-2.6757,-2.6764,-2.677,-2.6793,-2.6802,-2.6695,-2.6695,-2.6695,-2.6695,0,-2.6244,-2.6289,-2.6322,-2.6373,-2.6404,-2.6451,-2.6475,-2.6505,-2.6512,-2.6531,-2.6592,-2.6627,-2.6676,-2.6695,-2.6702,-2.6767,-2.676,-2.6753,-2.6732,-2.678,-2.6801,-2.681,-2.6697,-2.6697,-2.6696,-2.6696,0,0,-2.6306,-2.6366,-2.6378,-2.6401,-2.6449,-2.6484,-2.6532,-2.658,-2.6604,-2.6643,-2.6683,-2.6747,-2.6741,-2.6769,-2.6781,-2.6813,-2.6865,-2.6802,-2.6803,-2.6811,-2.6938,-2.6941,-2.6951,-2.6866,-2.6867,-2.6869,-2.6934,0,-2.6367,-2.645,-2.6466,-2.6539,-2.6581,-2.6586,-2.6628,-2.6662,-2.6682,-2.6721,-2.6744,-2.6788,-2.6777,-2.6794,-2.6826,-2.6851,-2.689,-2.6847,-2.6903,-2.6905,-2.689,-2.6963,-2.6967,-2.7026,-2.6942,-2.6944,-2.6945,0,-2.6448,-2.6487,-2.6563,-2.6605,-2.6624,-2.666,-2.6706,-2.6743,-2.6782,-2.6795,-2.6827,-2.6835,-2.6886,-2.6864,-2.6934,-2.6905,-2.6929,-2.6945,-2.6948,-2.6952,-2.6926,-2.6968,-2.7046,-2.7054,-2.6959,-2.6958,-2.6957,0,-2.6484,-2.6556,-2.6611,-2.6631,-2.6682,-2.6708,-2.673,-2.6768,-2.6796,-2.6836,-2.6854,-2.6901,-2.6925,-2.6961,-2.6982,-2.6965,-2.7051,-2.7031,-2.7063,-2.7062,-2.7079,-2.7077,-2.716,-2.7097,-2.7097,-2.7097,-2.7097,0,-2.6549,-2.6595,-2.6627,-2.6661,-2.6713,-2.6733,-2.6785,-2.6807,-2.6841,-2.688,-2.6889,-2.6925,-2.6951,-2.6991,-2.7009,-2.7064,-2.7076,-2.7087,-2.7091,-2.7085,-2.7084,-2.71,-2.7096,-2.7099,-2.7099,-2.7098,-2.7098,0,-2.6597,-2.662,-2.668,-2.6724,-2.6736,-2.6773,-2.681,-2.6844,-2.6864,-2.6913,-2.6926,-2.6959,-2.7007,-2.7032,-2.7092,-2.7104,-2.7165,-2.7168,-2.7151,-2.7153,-2.7182,-2.7179,-2.7278,-2.7291,-2.7221,-2.7221,-2.7222,0,-2.6636,-2.6671,-2.6719,-2.6745,-2.6767,-2.681,-2.6838,-2.6859,-2.6889,-2.6937,-2.6964,-2.7013,-2.7052,-2.7129,-2.7159,-2.7205,-2.7208,-2.7239,-2.7215,-2.7208,-2.7207,-2.7203,-2.7207,-2.7243,-2.7244,-2.7244,-2.7245,0,-2.6702,-2.6712,-2.6752,-2.6796,-2.6829,-2.6866,-2.6901,-2.6923,-2.695,-2.6983,-2.7031,-2.7062,-2.7124,-2.7172,-2.722,-2.7245,-2.7249,-2.7252,-2.7262,-2.7256,-2.7244,-2.725,-2.7162,-2.725,-2.7249,-2.7249,-2.7248,-2.7248,-2.6746,-2.6777,-2.6815,-2.686,-2.6889,-2.6922,-2.6955,-2.698,-2.7021,-2.7072,-2.7083,-2.7134,-2.7174,-2.724,-2.7266,-2.7307,-2.7301,-2.7315,-2.7318,-2.7321,-2.7321,-2.7239,-2.7317,-2.7316,-2.7316,-2.7316,-2.7316,0,-2.6811,-2.6836,-2.6877,-2.6926,-2.6961,-2.6962,-2.7002,-2.7032,-2.7076,-2.7113,-2.7152,-2.7208,-2.7255,-2.7289,-2.7337,-2.7363,-2.7367,-2.7375,-2.7372,-2.7378,-2.7325,-2.7311,-2.7371,-2.7371,-2.7371,-2.7371,-2.7371,-2.7371,-2.6849,-2.6902,-2.6917,-2.6986,-2.7011,-2.706,-2.7083,-2.7114,-2.7143,-2.7205,-2.7244,-2.7265,-2.7301,-2.7352,-2.7395,-2.7404,-2.7421,-2.7429,-2.7438,-2.7388,-2.7382,-2.7376,-2.7363,-2.7433,-2.7433,-2.7487,-2.7487,-2.7488]},{"header":{"parameterUnit":"m.s-1","parameterCategory":1,"la1":30.2991,"la2":30.254,"lo1":-89.0895,"lo2":-89.0444,"dx":0.0017,"dy":0.0017,"nx":28,"ny":28,"refTime":"2022-12-02T09:00:00:Z","depth":0,"parameterNumber":3,"parameterNumberName":"V-component_of_WINDS"},"data":[0,0,0,0,0,0,0,0,0,0,0,0,0,0,0,0,0,0,0,0,0,0,0,0,0,0,0,0,0,0,0,0,0,0,0,0,0,0,0,0,0,0,0,0,0,0,0,0,0,0,0,0,0,0,0,0,0,0,2.2959,2.296,0,2.3035,2.3036,2.3037,2.3064,2.3064,2.3063,2.3063,2.314,2.3142,2.3144,0,0,0,0,0,0,0,0,0,0,0,0,0,2.2839,2.2841,2.2959,2.296,2.2961,2.3035,2.3036,2.3037,2.3064,2.3064,2.3063,2.3063,2.3139,2.3142,2.3144,0,0,0,0,0,0,0,0,0,0,0,0,0,2.2901,2.2842,2.2959,2.2984,2.2987,2.3035,2.3036,2.3037,2.3064,2.3064,2.3063,2.3063,2.3138,2.3141,2.3145,2.3173,0,0,2.3155,2.3157,0,0,0,0,0,0,0,0,2.2897,2.2905,2.2979,2.2982,2.2985,2.304,2.3021,2.3083,2.3064,2.3035,2.3063,2.3063,2.3107,2.3113,2.3128,2.3177,2.318,2.3155,2.3157,2.3159,2.316,0,0,0,0,0,0,0,2.2893,2.2902,2.2989,2.298,2.2984,2.2991,2.2999,2.3033,2.3072,2.3037,2.3039,2.3048,2.3108,2.3124,2.313,2.3181,2.3155,2.3158,2.316,2.3162,2.3261,2.3261,0,0,0,0,0,0,2.2884,2.2898,2.2987,2.2991,2.2939,2.2994,2.3003,2.3023,2.3072,2.3079,2.3048,2.3049,2.3119,2.3126,2.3132,2.3171,2.3159,2.3162,2.3164,2.326,2.3261,2.3262,0,0,0,0,0,0,2.2882,2.2892,2.2984,2.2945,2.2958,2.2996,2.3018,2.3024,2.304,2.308,2.3087,2.3057,2.3119,2.3128,2.3164,2.3174,2.3164,2.3167,2.326,2.3261,2.3261,2.3247,0,0,0,0,0,0,2.2878,2.2891,2.2902,2.2946,2.296,2.3014,2.3019,2.3026,2.3046,2.3048,2.309,2.3097,2.3119,2.3158,2.3167,2.3178,2.3169,2.3259,2.326,2.3261,2.3247,2.3247,2.3248,0,0,0,0,0,2.2874,2.2894,2.2902,2.2913,2.2974,2.3014,2.3022,2.3047,2.3047,2.3059,2.3085,2.3096,2.3171,2.3162,2.3172,2.3184,2.3258,2.326,2.3261,2.3247,2.3247,2.3248,0,0,0,0,0,0,2.285,2.29,2.291,2.2945,2.2975,2.3019,2.3034,2.3047,2.3077,2.3077,2.3107,2.3116,2.3151,2.3171,2.316,2.3216,2.3216,2.3219,2.3201,2.3202,2.3203,2.3197,2.3172,0,0,0,0,0,2.2849,2.2877,2.292,2.2947,2.2961,2.2995,2.3013,2.303,2.3062,2.3075,2.3103,2.3134,2.3165,2.3185,2.3215,2.325,2.3261,2.3264,2.3264,2.3264,2.3267,2.3289,2.3291,2.3266,2.3266,2.3266,0,0,2.2847,2.2878,2.2894,2.2943,2.2968,2.2997,2.3005,2.3035,2.3057,2.3079,2.3116,2.3138,2.3174,2.321,2.3228,2.3228,2.3277,2.3266,2.3266,2.3269,2.3291,2.3293,2.3295,2.3267,2.3267,2.3267,0,0,2.2858,2.2884,2.291,2.2936,2.2975,2.2997,2.3004,2.3046,2.3061,2.3098,2.3117,2.3143,2.3195,2.3221,2.3241,2.3264,2.3276,2.3273,2.3276,2.3297,2.3299,2.3301,2.3311,2.3314,2.3276,2.3276,2.3276,0,2.285,2.2895,2.2922,2.2952,2.2973,2.2996,2.3023,2.3047,2.3093,2.3107,2.3108,2.3175,2.3201,2.3245,2.3251,2.3266,2.3275,2.3269,2.3297,2.3299,2.3301,2.3311,2.3314,2.3275,2.3275,2.3275,2.3276,0,2.2884,2.2915,2.2932,2.2977,2.3001,2.3029,2.306,2.3081,2.3096,2.3119,2.3158,2.319,2.3228,2.324,2.3254,2.3286,2.3286,2.3291,2.3291,2.3303,2.3312,2.3316,2.3275,2.3275,2.3275,2.3275,0,0,2.2881,2.2943,2.2949,2.2971,2.3016,2.304,2.307,2.3108,2.3126,2.3158,2.3184,2.3229,2.3235,2.3258,2.3276,2.3294,2.3313,2.3298,2.3299,2.33,2.3351,2.3347,2.3351,2.3321,2.3322,2.3322,2.3349,0,2.2899,2.2954,2.298,2.3023,2.3053,2.3076,2.3102,2.3133,2.3156,2.3184,2.3209,2.3241,2.3246,2.326,2.3279,2.3306,2.3323,2.3305,2.3346,2.3348,2.3337,2.3356,2.3351,2.3375,2.3352,2.3353,2.3353,0,2.2927,2.296,2.3006,2.305,2.3064,2.3087,2.3125,2.3152,2.3188,2.3204,2.323,2.3248,2.3281,2.3279,2.3326,2.3313,2.3332,2.3348,2.3349,2.3354,2.3351,2.3362,2.3382,2.3386,2.3359,2.3359,2.3358,0,2.2922,2.2978,2.3013,2.3031,2.3083,2.3099,2.3121,2.3157,2.3179,2.3213,2.3227,2.3264,2.3284,2.3312,2.334,2.3336,2.3385,2.3385,2.34,2.3399,2.3409,2.3408,2.3433,2.342,2.342,2.3419,2.3419,0,2.2939,2.2967,2.3012,2.3034,2.3066,2.3097,2.3128,2.3152,2.3184,2.3212,2.3233,2.3259,2.3294,2.3324,2.3346,2.3382,2.3391,2.3405,2.341,2.3403,2.3401,2.3416,2.3416,2.342,2.342,2.342,2.342,0,2.2938,2.297,2.301,2.3057,2.3069,2.3091,2.3131,2.3153,2.3178,2.3213,2.3222,2.3261,2.3298,2.3328,2.3376,2.3391,2.3429,2.3435,2.3417,2.342,2.3434,2.3432,2.3469,2.3476,2.3457,2.3458,2.3458,0,2.2948,2.297,2.3019,2.304,2.3062,2.3094,2.3118,2.3149,2.3172,2.3216,2.3234,2.3272,2.3305,2.3363,2.3395,2.3432,2.344,2.3451,2.3446,2.3439,2.3442,2.3441,2.3444,2.3451,2.3451,2.3451,2.3451,0,2.2961,2.2976,2.3009,2.3048,2.3075,2.3107,2.3139,2.3155,2.3192,2.3217,2.3256,2.3281,2.3331,2.337,2.3411,2.3434,2.345,2.3453,2.3458,2.3451,2.344,2.3448,2.3419,2.3452,2.3451,2.3451,2.3451,2.3451,2.2967,2.2988,2.3027,2.3063,2.3091,2.3122,2.3146,2.3174,2.3207,2.325,2.3267,2.3307,2.3345,2.3402,2.3425,2.3457,2.3459,2.3467,2.3469,2.3471,2.347,2.3435,2.3465,2.3465,2.3465,2.3465,2.3465,0,2.2982,2.3009,2.3042,2.3088,2.3117,2.3129,2.3166,2.319,2.3224,2.3259,2.3291,2.3336,2.3374,2.341,2.345,2.3469,2.3477,2.3479,2.3478,2.3483,2.3466,2.3457,2.3471,2.3471,2.3471,2.3471,2.3471,2.3471,2.2994,2.3032,2.3052,2.3104,2.3131,2.317,2.3191,2.3219,2.3247,2.3297,2.3329,2.3352,2.3388,2.3431,2.3467,2.3477,2.3491,2.3491,2.3502,2.3485,2.3484,2.3483,2.3476,2.3493,2.3493,2.3518,2.3518,2.3518]}]]